Date,TemperatureHighF,TemperatureAvgF,TemperatureLowF,DewpointHighF,DewpointAvgF,DewpointLowF,HumidityHigh,HumidityAvg,HumidityLow,PressureMaxIn,PressureMinIn,WindSpeedMaxMPH,WindSpeedAvgMPH,GustSpeedMaxMPH,PrecipitationSumIn
2013-8-1,77.3,68.8,64.8,68.3,64.7,61.3,96,87,65,30.04,29.82,3,1,13,0.63
2013-8-2,84.3,74.2,65.0,68.0,64.3,59.8,96,74,44,29.90,29.77,7,2,15,0.00
2013-8-3,78.9,70.0,64.9,67.6,64.6,61.3,93,83,63,29.90,29.82,6,2,14,0.06
2013-8-4,79.7,69.2,60.1,63.7,59.1,53.3,95,72,44,29.95,29.84,9,2,18,0.01
2013-8-5,76.9,66.6,57.6,57.4,52.5,46.1,89,64,37,30.05,29.95,8,2,19,0.00
2013-8-6,80.3,68.8,56.0,63.2,56.9,53.7,92,69,41,30.12,30.03,5,1,14,0.00
2013-8-7,79.0,70.9,62.7,68.1,63.1,59.0,92,77,59,30.14,30.06,5,2,14,0.04
2013-8-8,82.8,74.2,70.4,73.9,70.5,68.0,94,88,72,30.07,30.00,3,1,11,0.11
2013-8-9,86.0,76.0,71.7,75.7,72.5,70.1,96,89,67,30.00,29.78,7,2,25,0.28
2013-8-10,83.0,73.6,64.4,71.7,64.4,59.4,96,75,48,30.04,29.84,6,1,15,0.00
2013-8-11,79.4,69.6,56.5,63.9,57.5,51.6,91,68,44,30.12,30.02,5,1,9,0.00
2013-8-12,82.5,73.1,67.4,66.7,63.5,54.9,94,74,40,30.03,29.91,4,1,10,0.02
2013-8-13,79.6,71.6,66.3,70.8,66.9,63.7,95,86,67,29.93,29.69,4,1,9,0.69
2013-8-14,74.8,67.0,58.6,67.2,55.3,49.0,95,68,48,30.03,29.73,6,2,20,0.00
2013-8-15,77.2,65.0,52.9,56.5,53.0,48.8,93,69,38,30.14,30.03,4,1,12,0.00
2013-8-16,79.8,67.6,55.7,59.3,54.8,48.6,92,67,37,30.20,30.12,4,1,9,0.00
2013-8-17,81.5,68.6,56.3,63.5,58.4,54.0,93,72,42,30.27,30.20,5,1,9,0.00
2013-8-18,76.3,68.1,61.5,65.4,61.2,58.3,91,79,61,30.26,30.13,3,0,7,0.00
2013-8-19,79.9,69.9,60.7,68.3,62.8,58.7,94,79,55,30.12,30.02,4,1,10,0.00
2013-8-20,86.2,73.2,60.6,67.4,63.1,58.9,94,74,45,30.12,30.03,4,1,11,0.01
2013-8-21,88.8,75.1,62.9,67.7,63.7,59.3,93,71,40,30.17,30.04,4,1,10,0.00
2013-8-22,77.4,72.0,67.2,71.3,68.6,64.7,95,89,80,30.05,29.86,4,1,16,0.67
2013-8-23,79.7,72.9,65.5,69.9,61.4,54.5,94,69,45,30.10,29.86,6,2,14,0.00
2013-8-24,79.1,68.3,59.6,59.3,54.4,50.9,89,63,42,30.34,30.10,7,2,13,0.00
2013-8-25,82.8,68.7,55.3,60.0,56.0,51.2,94,68,34,30.38,30.21,4,1,11,0.01
2013-8-26,79.3,72.8,65.2,69.7,62.8,56.9,95,71,59,30.22,29.89,5,2,12,0.11
2013-8-27,84.3,75.0,70.3,70.3,68.8,67.4,96,82,59,29.90,29.79,6,2,16,0.06
2013-8-28,87.6,73.9,66.3,71.7,68.6,64.5,95,85,54,29.89,29.83,6,1,15,0.06
2013-8-29,78.8,72.6,68.5,69.5,67.5,64.7,96,84,69,30.02,29.88,7,2,12,0.00
2013-8-30,84.9,75.4,68.3,70.9,67.2,64.0,89,77,56,30.02,29.84,4,2,13,0.00
2013-8-31,85.7,78.3,73.7,74.4,71.5,69.0,91,80,66,29.85,29.77,5,2,13,0.00